CAPE
0 0 0 0 0 0 0 0 0 0 0 0 0 0 0 0 0 0 0 0 0 0 0 0 0 0 0 0 0 0 0 0 0 0 0 0 0 0 0 0 0 0 0 0 0
0 0 0 0 0 0 0 0 0 0 0 0 0 0 0 0 0 0 0 0 0 0 0 0 0 0 0 0 0 0 0 0 0 0 0 0 0 0 0 0 0 0 0 0 0
0 0 0 0 0 0 0 0 0 0 0 0 0 0 0 0 0 0 0 0 0 0 0 0 0 0 0 0 0 0 0 0 0 0 0 0 0 0 0 0 0 0 0 0 0
0 0 0 0 0 0 0 0 0 0 0 0 0 0 0 0 0 0 0 0 0 0 0 0 0 0 0 0 0 0 0 0 0 0 0 0 0 0 0 0 0 0 0 0 0
0 0 0 0 0 0 0 0 0 0 0 0 0 0 0 0 0 0 0 0 0 0 0 0 0 0 0 0 0 0 0 0 0 0 0 0 0 0 0 0 0 0 0 0 0
0 0 0 0 0 0 0 0 0 0 0 0 0 0 0 0 0 0 0 0 0 0 0 0 0 0 0 0 0 0 0 0 0 0 0 0 0 0 0 0 0 0 0 0 0
0 0 1 0 0 0 0 0 0 0 0 0 0 0 0 0 0 0 0 0 0 0 0 0 0 0 0 0 0 0 0 0 0 0 0 0 0 0 0 0 0 0 0 0 0
0 0 0 0 0 0 0 0 0 0 0 0 0 0 0 0 0 0 0 0 0 0 0 0 0 0 0 0 0 0 0 0 0 0 0 0 0 0 0 0 0 0 0 0 0
0 0 0 0 0 0 0 0 0 0 0 0 0 0 0 0 0 0 0 0 0 0 0 0 0 0 0 0 0 0 0 0 0 0 0 0 0 0 0 0 0 0 0 0 0
3 0 0 0 0 0 0 0 0 0 0 0 0 0 0 0 0 0 0 0 0 0 0 0 0 0 0 0 0 0 0 0 0 0 0 0 0 0 0 0 0 0 0 0 0
6 2 0 0 0 0 0 0 0 0 0 0 0 0 0 0 0 0 0 0 0 0 0 0 0 0 0 0 0 0 0 0 0 0 0 0 0 0 0 0 0 0 0 0 0
0 0 1 0 0 0 0 0 0 0 0 0 0 0 0 0 0 0 0 0 0 0 0 0 0 0 0 0 0 0 0 0 0 0 0 0 0 0 0 0 0 0 0 0 0
0 0 0 0 0 0 0 0 0 0 0 0 0 0 0 0 0 0 0 0 0 0 0 0 0 0 0 0 0 0 0 0 0 0 0 0 0 0 0 0 0 0 0 0 0
13 3 0 0 0 0 0 0 0 0 0 0 0 0 0 0 0 0 0 0 0 0 0 0 0 0 0 0 0 0 0 0 0 0 0 0 0 0 0 0 0 0 0 0 0
37 8 0 0 0 0 0 0 0 0 0 0 0 0 0 0 0 0 0 0 0 0 0 0 0 0 0 0 0 0 0 0 0 0 0 0 0 0 0 0 0 0 0 0 0
18 23 0 0 0 0 0 0 0 0 0 0 0 0 0 0 0 0 0 0 0 0 0 0 0 0 0 0 0 0 0 0 0 0 0 0 0 0 0 0 0 0 0 0 0
21 30 14 0 0 0 0 0 0 0 0 0 0 0 0 0 0 0 0 0 0 0 0 0 0 0 0 0 0 0 0 0 0 0 0 0 0 0 0 0 0 0 0 0 0
18 4 24 0 0 0 0 0 0 0 0 0 0 0 0 0 0 0 0 0 0 0 0 0 0 0 0 0 0 0 0 0 0 0 0 0 0 0 0 0 0 0 0 0 0
22 5 7 0 0 0 0 0 0 0 0 0 0 0 0 0 0 0 0 0 0 0 0 0 0 0 0 0 0 0 0 0 0 0 0 0 0 0 0 0 0 0 0 0 0
15 23 29 0 0 0 0 0 0 0 0 0 0 0 0 0 0 0 0 0 0 0 0 0 0 0 0 0 0 0 0 0 0 0 0 0 0 0 0 0 0 0 0 0 0
27 18 32 0 0 0 0 0 0 0 0 0 0 0 0 0 0 0 0 0 0 0 0 0 0 0 0 0 0 0 0 0 0 0 0 0 0 0 0 24 1 0 0 0 0
13 12 4 0 0 1 0 0 0 0 0 0 0 0 0 0 0 0 0 0 0 0 0 0 0 0 0 0 0 0 0 0 0 0 0 0 0 0 34 26 80 7 0 0 0
4 7 0 0 2 1 0 0 0 0 0 0 0 0 0 0 0 0 0 0 0 0 0 0 0 0 0 0 0 0 0 0 0 0 0 0 0 0 16 12 36 15 0 0 0
0 2 1 3 0 0 0 0 0 0 0 0 0 0 0 0 0 0 0 0 0 0 0 0 0 0 0 0 0 0 0 0 0 0 0 0 0 1 0 0 21 0 0 0 0
0 0 1 0 0 0 0 0 0 0 0 0 0 0 0 0 0 0 0 0 0 0 0 0 0 0 0 0 0 0 0 0 0 0 0 0 0 0 0 0 1 0 0 0 0
0 0 1 0 0 0 0 0 0 0 0 0 0 0 0 0 0 0 0 0 0 0 0 0 0 0 0 0 0 0 0 0 0 0 0 0 0 0 0 0 6 0 0 0 0
1 0 2 0 0 0 0 0 0 0 0 0 0 0 0 0 0 0 0 0 0 0 0 0 0 0 0 0 0 0 0 0 0 0 0 0 0 0 0 0 0 0 0 0 0
CIN
0 0 0 0 0 0 0 0 0 0 0 0 0 0 0 0 0 0 0 0 0 0 0 0 0 0 0 0 0 0 0 0 0 0 0 0 0 0 0 0 0 0 0 0 0
0 0 0 0 0 0 0 0 0 0 0 0 0 0 0 0 0 0 0 0 0 0 0 0 0 0 0 0 0 0 0 0 0 0 0 0 0 0 0 0 0 0 0 0 0
0 0 0 0 0 0 0 0 0 0 0 0 0 0 0 0 0 0 0 0 0 0 0 0 0 0 0 0 0 0 0 0 0 0 0 0 0 0 0 0 0 0 0 0 0
0 0 0 0 0 0 0 0 0 0 0 0 0 0 0 0 0 0 0 0 0 0 0 0 0 0 0 0 0 0 0 0 0 0 0 0 0 0 0 0 0 0 0 0 0
0 0 0 0 0 0 0 0 0 0 0 0 0 0 0 0 0 0 0 0 0 0 0 0 0 0 0 0 0 0 0 0 0 0 0 0 0 0 0 0 0 0 0 0 0
0 0 0 0 0 0 0 0 0 0 0 0 0 0 0 0 0 0 0 0 0 0 0 0 0 0 0 0 0 0 0 0 0 0 0 0 0 0 0 0 0 0 0 0 0
0 0 0 0 0 0 0 0 0 0 0 0 0 0 0 0 0 0 0 0 0 0 0 0 0 0 0 0 0 0 0 0 0 0 0 0 0 0 0 0 0 0 0 0 0
0 0 0 0 0 0 0 0 0 0 0 0 0 0 0 0 0 0 0 0 0 0 0 0 0 0 0 0 0 0 0 0 0 0 0 0 0 0 0 0 0 0 0 0 0
0 0 0 0 0 0 0 0 0 0 0 0 0 0 0 0 0 0 0 0 0 0 0 0 0 0 0 0 0 0 0 0 0 0 0 0 0 0 0 0 0 0 0 0 0
-1 0 0 0 0 0 0 0 0 0 0 0 0 0 0 0 0 0 0 0 0 0 0 0 0 0 0 0 0 0 0 0 0 0 0 0 0 0 0 0 0 0 0 0 0
-1 -3 -1 0 0 0 0 0 0 0 0 0 0 0 0 0 0 0 0 0 0 0 0 0 0 0 0 0 0 0 0 0 0 0 0 0 0 0 0 0 0 0 0 0 0
0 0 -3 0 0 0 0 0 0 0 0 0 0 0 0 0 0 0 0 0 0 0 0 0 0 0 0 0 0 0 0 0 0 0 0 0 0 0 0 0 0 0 0 0 0
0 0 0 0 0 0 0 0 0 0 0 0 0 0 0 0 0 0 0 0 0 0 0 0 0 0 0 0 0 0 0 0 0 0 0 0 0 0 0 0 0 0 0 0 0
-4 -16 0 0 0 0 0 0 0 0 0 0 0 0 0 0 0 0 0 0 0 0 0 0 0 0 0 0 0 0 0 0 0 0 0 0 0 0 0 0 0 0 0 0 0
-1 -9 -18 0 0 0 0 0 0 0 0 0 0 0 0 0 0 0 0 0 0 0 0 0 0 0 0 0 0 0 0 0 0 0 0 0 0 0 0 0 0 0 0 0 0
-4 -4 -13 0 0 0 0 0 0 0 0 0 0 0 0 0 0 0 0 0 0 0 0 0 0 0 0 0 0 0 0 0 0 0 0 0 0 0 0 0 0 0 0 0 0
-13 0 -7 0 0 0 0 0 0 0 0 0 0 0 0 0 0 0 0 0 0 0 0 0 0 0 0 0 0 0 0 0 0 0 0 0 0 0 0 0 0 0 0 0 0
-8 -13 -2 0 0 0 0 0 0 0 0 0 0 0 0 0 0 0 0 0 0 0 0 0 0 0 0 0 0 0 0 0 0 0 0 0 0 0 0 0 0 0 0 0 0
-6 -4 -1 -1 0 0 0 0 0 0 0 0 0 0 0 0 0 0 0 0 0 0 0 0 0 0 0 0 0 0 0 0 0 0 0 0 0 0 0 0 0 0 0 0 0
-5 -1 0 0 0 0 0 0 0 0 0 0 0 0 0 0 0 0 0 0 0 0 0 0 0 0 0 0 0 0 0 0 0 0 0 0 0 0 0 0 0 0 0 0 0
-1 -1 -5 0 0 0 0 0 0 0 0 0 0 0 0 0 0 0 0 0 0 0 0 0 0 0 0 0 0 0 0 0 0 0 0 0 0 0 -20 -73 -131 0 0 0 0
0 -3 -9 0 0 0 0 0 0 0 0 0 0 0 0 0 0 0 0 0 0 0 0 0 0 0 0 0 0 0 0 0 0 0 0 0 0 0 -134 -132 -91 -93 0 0 0
-5 -13 0 0 0 0 0 0 0 0 0 0 0 0 0 0 0 0 0 0 0 0 0 0 0 0 0 0 0 0 0 0 0 0 0 0 0 0 -153 -132 -148 -164 0 0 0
0 -5 0 0 0 0 0 0 0 0 0 0 0 0 0 0 0 0 0 0 0 0 0 0 0 0 0 0 0 0 0 0 0 0 0 0 0 -91 -32 0 -125 0 0 0 0
0 0 0 0 0 0 0 0 0 0 0 0 0 0 0 0 0 0 0 0 0 0 0 0 0 0 0 0 0 0 0 0 0 0 0 0 0 0 0 -36 -115 0 0 0 0
0 0 0 0 0 0 0 0 0 0 0 0 0 0 0 0 0 0 0 0 0 0 0 0 0 0 0 0 0 0 0 0 0 0 0 0 0 0 0 0 -157 0 0 0 0
0 0 0 0 0 0 0 0 0 0 0 0 0 0 0 0 0 0 0 0 0 0 0 0 0 0 0 0 0 0 0 0 0 0 0 0 0 0 0 0 0 0 0 0 0
Wind_Speed
32 31 32 33 32 33 34 34 34 34 34 34 33 33 32 32 32 24 19 14 9 8 9 9 8 7 10 11 10 12 18 20 22 23 19 14 11 15 16 15 16 15 17 17 13
32 32 33 33 33 33 34 35 35 36 35 35 35 34 33 31 31 36 21 16 10 8 11 8 8 8 13 12 10 11 15 18 16 19 18 13 9 10 14 15 17 16 16 15 15
32 32 33 33 33 34 35 35 36 36 36 36 36 35 32 28 31 31 18 15 12 9 12 10 10 11 14 13 12 11 14 18 19 17 16 11 9 11 14 15 11 11 10 13 15
33 33 34 34 34 35 35 36 37 37 37 36 35 33 31 22 29 19 18 19 7 8 8 10 13 13 15 10 8 12 19 22 26 16 13 10 13 14 12 12 11 9 9 11 14
35 36 36 37 37 37 37 37 37 37 37 35 33 32 25 26 25 23 23 19 9 6 8 5 7 10 11 12 9 16 23 23 20 12 11 12 10 16 6 16 13 9 9 10 13
36 36 37 37 37 38 38 38 38 38 38 35 32 28 21 22 33 31 29 19 10 5 6 4 6 6 13 13 15 18 19 19 17 16 15 10 16 12 9 13 10 8 7 9 12
37 37 37 38 38 39 39 39 40 40 39 36 29 22 23 32 22 19 13 15 13 6 6 4 3 6 12 18 18 21 17 18 17 18 19 16 16 4 10 10 9 6 7 9 11
37 37 37 37 38 39 40 41 42 41 40 32 20 18 24 25 27 36 25 26 17 7 10 13 12 9 15 17 17 19 19 17 22 18 19 10 12 6 8 6 6 5 7 8 10
37 37 37 37 38 38 39 41 41 35 29 17 18 20 30 24 22 25 15 15 13 14 14 13 10 13 15 11 16 17 15 16 22 20 19 10 12 21 12 4 6 6 6 8 10
37 37 37 37 37 38 39 40 35 23 18 17 20 22 28 21 19 18 11 11 13 12 12 11 12 13 15 16 22 21 22 20 21 25 14 13 9 10 18 6 6 6 5 7 9
38 36 36 35 36 36 34 26 25 23 21 21 21 22 21 19 19 16 12 8 8 9 10 11 14 13 13 16 18 20 23 22 27 31 21 20 9 31 17 8 6 6 3 4 7
38 36 36 35 35 36 26 24 21 25 35 29 40 38 42 27 24 22 6 8 9 10 9 11 15 13 19 19 20 21 25 28 35 29 18 29 36 35 18 7 3 4 3 2 6
39 38 37 36 36 26 25 22 25 26 32 33 26 27 25 18 21 22 9 10 11 11 10 12 14 15 14 16 18 22 25 30 34 31 25 25 27 33 24 17 10 8 5 3 2
38 35 34 35 29 27 23 26 27 22 34 35 24 29 18 16 27 12 10 11 15 14 10 11 15 9 10 11 16 15 26 26 30 29 27 20 33 30 26 25 15 7 5 3 3
37 34 31 27 31 26 24 29 26 16 42 25 23 19 15 16 11 16 12 16 13 11 11 13 10 8 11 14 8 8 22 21 25 24 23 22 23 28 26 28 17 8 4 4 6
39 35 30 29 28 28 28 27 16 26 43 28 20 17 16 19 15 13 14 15 16 15 14 12 13 10 12 9 7 14 18 21 22 18 19 21 21 26 26 24 24 18 2 5 8
40 37 31 27 31 24 26 21 29 42 27 32 23 19 16 19 18 17 18 20 18 15 16 17 13 14 10 6 12 12 15 23 23 17 18 23 22 19 28 17 12 7 3 8 10
39 37 33 31 27 25 24 28 46 45 38 26 23 19 19 17 21 19 19 22 21 17 14 14 14 11 12 11 9 10 8 14 23 23 19 20 22 33 22 24 29 21 5 9 13
41 39 36 30 25 25 29 43 52 43 34 33 24 27 25 20 19 21 25 24 22 22 19 14 16 16 13 13 8 11 12 10 15 18 18 20 31 32 22 25 26 19 9 12 14
40 40 42 26 24 26 37 55 47 39 31 34 37 28 30 25 23 21 25 26 24 19 18 17 20 17 13 14 15 10 10 13 15 19 11 23 30 31 30 28 24 16 8 11 15
35 41 33 26 24 34 52 56 52 37 38 33 40 35 33 29 26 26 27 25 25 23 19 19 19 17 14 14 12 14 14 13 12 13 11 14 34 23 23 26 27 17 6 14 18
34 46 27 26 42 43 57 50 46 51 36 36 36 36 34 31 31 31 31 24 18 21 25 20 20 25 16 17 15 13 12 11 11 12 18 32 37 20 24 27 24 24 5 10 19
34 35 28 34 51 55 53 52 50 46 48 34 37 37 37 32 33 32 31 26 19 19 23 20 26 25 24 21 18 15 13 10 12 14 12 35 34 18 22 24 24 20 8 15 19
22 34 29 37 38 50 56 58 51 51 46 39 36 34 36 39 33 28 26 23 23 21 20 20 28 26 25 21 17 20 17 11 10 11 22 39 33 25 25 27 25 21 18 9 21
21 26 23 34 44 45 44 45 56 47 49 34 40 37 35 40 37 34 25 23 20 23 19 18 31 31 33 25 19 16 17 14 15 14 18 38 36 33 33 28 26 22 12 6 15
21 23 23 23 36 43 41 46 55 52 42 53 43 37 36 35 33 35 32 27 24 21 21 23 29 24 29 27 23 22 20 17 18 17 23 31 39 28 24 23 26 21 14 6 14
22 30 24 27 29 36 44 48 45 43 44 42 40 44 40 37 34 33 33 34 29 26 24 25 27 27 33 24 23 29 22 19 17 17 15 40 39 25 26 29 30 29 20 22 5
Wind_Direction
296 303 302 303 305 300 299 299 301 300 301 301 302 302 302 301 296 299 297 301 307 318 340 354 343 355 351 337 338 337 323 319 324 334 339 350 355 353 355 357 355 359 357 6 33
294 298 301 301 303 303 299 300 299 298 300 300 302 303 305 308 300 286 300 292 280 303 315 313 313 332 325 331 339 333 326 323 333 337 337 347 352 358 354 355 351 359 11 26 25
293 295 296 298 301 303 301 299 298 299 302 303 302 302 306 309 299 295 303 279 260 266 297 309 323 322 317 318 318 324 319 323 320 323 332 338 344 352 345 345 356 0 21 27 22
293 295 294 296 299 298 299 298 297 298 301 302 300 301 302 307 291 323 322 318 247 237 279 292 303 308 312 313 327 325 319 320 318 326 333 339 346 337 340 347 4 16 31 32 23
294 294 295 296 297 296 294 292 291 292 294 297 299 301 304 293 220 295 301 319 323 224 205 254 284 308 300 311 324 320 324 326 329 352 345 347 344 338 349 349 11 29 27 37 28
297 298 298 298 296 295 293 291 289 289 289 296 301 305 305 284 271 279 278 297 312 236 213 237 290 282 311 306 307 317 324 325 337 339 337 354 344 360 10 0 19 29 32 42 38
297 297 297 297 297 294 292 290 288 288 288 293 302 305 296 229 285 300 302 293 294 271 221 231 296 319 316 305 310 311 317 320 325 332 337 353 344 346 4 14 19 35 32 43 37
291 293 294 295 295 295 293 290 287 287 286 295 304 304 296 291 283 265 277 276 289 279 270 288 298 305 305 309 317 310 310 316 312 331 331 3 347 15 360 16 19 25 23 34 31
293 293 294 294 293 291 289 285 283 293 298 305 302 298 293 296 291 279 269 273 278 278 278 288 305 302 306 305 311 318 319 322 320 322 331 341 343 341 357 1 360 358 8 25 26
295 296 296 295 294 292 290 283 288 302 307 302 297 295 285 293 299 290 271 259 272 275 276 283 295 289 294 296 289 302 311 319 324 323 333 331 251 318 337 332 336 347 6 18 23
293 294 295 296 296 296 300 304 298 295 290 282 289 281 291 301 290 286 275 243 268 263 248 276 272 259 276 289 298 306 311 314 314 311 320 318 307 264 331 326 331 339 353 14 19
290 293 292 293 294 293 300 295 300 296 282 281 266 267 243 284 287 278 251 231 233 232 265 272 226 272 283 289 296 304 307 307 297 311 323 310 295 302 331 331 281 315 335 21 29
286 287 288 290 293 296 291 292 298 303 286 282 277 274 270 272 273 268 259 247 235 221 233 228 278 279 281 290 295 302 306 301 302 310 314 314 313 305 321 332 345 327 328 344 51
285 286 288 290 289 290 286 293 296 301 284 277 279 276 257 260 269 248 247 240 265 214 239 231 276 252 272 279 295 297 304 304 307 314 314 321 310 309 320 320 338 326 296 244 155
281 282 285 287 282 282 286 289 293 294 270 284 271 287 262 230 260 250 239 253 215 246 257 218 255 230 216 213 281 266 307 315 315 316 317 317 315 309 321 318 337 323 299 187 161
278 277 277 279 279 276 286 286 278 268 264 276 275 264 257 247 240 256 237 252 259 255 260 222 272 242 212 222 267 305 313 318 321 322 315 317 313 310 316 328 337 349 356 166 154
276 272 269 269 270 276 282 267 255 255 270 268 271 265 248 254 244 228 222 217 224 231 225 271 261 271 267 255 305 311 319 314 317 318 315 313 314 323 318 343 350 348 29 151 145
275 270 263 262 267 269 263 245 250 257 250 275 263 260 256 251 244 229 234 226 221 228 256 245 256 244 275 260 279 296 304 313 314 315 316 317 314 304 335 336 326 342 50 130 138
271 266 261 254 257 258 244 237 248 252 253 258 268 259 256 250 261 238 227 231 227 213 224 246 260 282 262 275 262 296 297 319 315 322 317 311 294 301 329 327 333 355 38 130 137
266 262 257 246 243 245 239 239 249 251 260 239 253 256 252 252 249 238 237 239 234 226 245 261 280 273 266 274 276 260 298 308 325 317 302 305 289 292 303 316 333 350 59 131 141
263 259 255 234 234 239 236 242 243 257 255 248 246 254 256 251 247 248 257 253 226 235 233 253 258 282 268 248 244 283 286 301 313 313 297 301 265 310 317 313 304 340 76 144 148
262 254 246 223 238 242 239 241 249 246 257 254 253 249 253 252 249 248 251 253 247 226 230 240 258 263 260 280 273 255 248 253 265 298 305 272 255 305 300 301 321 286 54 136 158
261 258 252 234 239 240 242 246 247 249 243 258 252 250 249 253 254 251 255 256 258 233 231 232 256 260 270 272 279 275 277 268 291 298 273 256 262 302 305 309 316 305 112 148 158
267 253 253 245 247 242 242 243 246 243 252 250 255 254 247 245 252 254 254 258 253 253 242 229 249 249 235 267 275 273 274 265 259 264 281 243 269 284 290 303 298 288 294 127 163
263 262 262 247 244 243 242 246 239 244 240 247 249 248 245 243 244 247 253 255 254 249 250 245 253 256 265 267 261 255 256 243 242 233 269 248 258 273 279 294 271 285 318 107 152
261 260 261 267 245 243 244 244 241 240 243 239 245 243 247 246 245 245 247 251 252 255 250 257 257 260 265 262 260 262 233 234 225 268 272 268 250 284 292 288 270 285 296 150 162
268 250 272 261 268 247 246 242 244 242 240 242 241 244 247 249 252 253 255 252 255 253 254 254 257 258 264 266 264 234 230 235 250 261 250 254 241 283 282 270 269 268 284 271 181